Hourly Weather Głuchołazy

Today, 22 October, Thursday

Time Temperature Precipitation Wind Pressure Humidity
00:00 +10°C° 0 mm 5 mps 734 mmHg 75%
01:00 +11°C° 0 mm 4 mps 734 mmHg 75%
02:00 +11°C° 0 mm 4 mps 734 mmHg 74%
03:00 +12°C° 0 mm 4 mps 734 mmHg 73%
04:00 +12°C° 0 mm 4 mps 734 mmHg 72%
05:00 +12°C° 0 mm 4 mps 734 mmHg 71%
06:00 +12°C° 0 mm 4 mps 734 mmHg 71%
07:00 +12°C° 0 mm 4 mps 735 mmHg 71%
08:00 +13°C° 0 mm 4 mps 735 mmHg 68%
09:00 +14°C° 0 mm 4 mps 735 mmHg 65%
10:00 +17°C° 0 mm 3 mps 735 mmHg 62%
11:00 +17°C° 0 mm 3 mps 735 mmHg 61%
12:00 +18°C° 0 mm 3 mps 735 mmHg 60%
13:00 +19°C° 0 mm 2 mps 735 mmHg 59%
14:00 +18°C° 0 mm 3 mps 735 mmHg 64%
15:00 +17°C° 0 mm 3 mps 735 mmHg 69%
16:00 +16°C° 0 mm 3 mps 734 mmHg 74%
17:00 +14°C° 0 mm 3 mps 735 mmHg 76%
18:00 +13°C° 0 mm 3 mps 735 mmHg 78%
19:00 +12°C° 0 mm 3 mps 735 mmHg 80%
20:00 +12°C° 0 mm 3 mps 735 mmHg 80%
21:00 +12°C° 0 mm 3 mps 735 mmHg 79%
22:00 +12°C° 0 mm 2 mps 735 mmHg 79%
23:00 +12°C° 0 mm 2 mps 735 mmHg 79%

Tomorrow, 23 October, Friday

Time Temperature Precipitation Wind Pressure Humidity
00:00 +12°C° 0 mm 2 mps 735 mmHg 78%
01:00 +12°C° 0 mm 2 mps 735 mmHg 78%
02:00 +12°C° 0 mm 2 mps 734 mmHg 78%
03:00 +12°C° 0 mm 2 mps 734 mmHg 79%
04:00 +12°C° 0 mm 2 mps 734 mmHg 79%
05:00 +12°C° 0 mm 2 mps 733 mmHg 79%
06:00 +12°C° 0 mm 2 mps 733 mmHg 79%
07:00 +12°C° 0 mm 2 mps 733 mmHg 79%
08:00 +14°C° 0 mm 2 mps 733 mmHg 75%
09:00 +15°C° 0 mm 2 mps 733 mmHg 72%
10:00 +17°C° 0 mm 2 mps 733 mmHg 68%
11:00 +17°C° 0 mm 2 mps 733 mmHg 67%
12:00 +18°C° 0 mm 2 mps 733 mmHg 66%
13:00 +18°C° 0 mm 2 mps 732 mmHg 64%
14:00 +17°C° 0 mm 2 mps 732 mmHg 69%
15:00 +16°C° 0 mm 1 mps 732 mmHg 74%
16:00 +16°C° 0 mm 1 mps 731 mmHg 78%
17:00 +15°C° 0 mm 1 mps 731 mmHg 79%
18:00 +14°C° 0 mm 2 mps 731 mmHg 80%
19:00 +14°C° 0 mm 2 mps 731 mmHg 81%
20:00 +14°C° 0 mm 2 mps 731 mmHg 82%
21:00 +13°C° 0 mm 2 mps 731 mmHg 83%
22:00 +13°C° 0 mm 2 mps 731 mmHg 83%
23:00 +13°C° 0.1 mm 2 mps 731 mmHg 84%

Day after tomorrow, 24 October, Saturday

Time Temperature Precipitation Wind Pressure Humidity
00:00 +13°C° 0.1 mm 2 mps 731 mmHg 85%
01:00 +13°C° 0.1 mm 2 mps 731 mmHg 85%
02:00 +13°C° 0.6 mm 2 mps 731 mmHg 88%
03:00 +12°C° 0.6 mm 2 mps 731 mmHg 90%
04:00 +12°C° 0.6 mm 2 mps 731 mmHg 93%
05:00 +12°C° 1.1 mm 2 mps 731 mmHg 93%
06:00 +13°C° 1.1 mm 2 mps 731 mmHg 94%
07:00 +13°C° 1.1 mm 2 mps 732 mmHg 95%
08:00 +14°C° 0.1 mm 2 mps 732 mmHg 90%
09:00 +14°C° 0.1 mm 3 mps 733 mmHg 84%
10:00 +14°C° 0.1 mm 4 mps 733 mmHg 79%
11:00 +15°C° 0.1 mm 4 mps 733 mmHg 76%
12:00 +16°C° 0.1 mm 3 mps 734 mmHg 74%
13:00 +17°C° 0.1 mm 3 mps 734 mmHg 71%
14:00 +16°C° 0.1 mm 3 mps 734 mmHg 74%
15:00 +15°C° 0.1 mm 2 mps 734 mmHg 76%
16:00 +15°C° 0.1 mm 2 mps 734 mmHg 79%
17:00 +14°C° 0 mm 2 mps 734 mmHg 81%
18:00 +13°C° 0 mm 1 mps 735 mmHg 84%
19:00 +12°C° 0 mm 1 mps 735 mmHg 86%
20:00 +11°C° 0 mm 1 mps 735 mmHg 86%
21:00 +10°C° 0 mm 2 mps 735 mmHg 86%
22:00 +10°C° 0 mm 2 mps 736 mmHg 86%
23:00 +11°C° 0 mm 1 mps 735 mmHg 87%

, 25 October, Sunday

Time Temperature Precipitation Wind Pressure Humidity
00:00 +11°C° 0 mm 1 mps 735 mmHg 87%
01:00 +10°C° 0 mm 1 mps 735 mmHg 87%
02:00 +10°C° 0 mm 1 mps 735 mmHg 87%
03:00 +10°C° 0 mm 1 mps 735 mmHg 87%
04:00 +10°C° 0 mm 1 mps 735 mmHg 87%
05:00 +10°C° 0 mm 1 mps 735 mmHg 87%
06:00 +10°C° 0 mm 1 mps 735 mmHg 88%
07:00 +9°C° 0 mm 1 mps 735 mmHg 88%
08:00 +10°C° 0 mm 2 mps 735 mmHg 82%
09:00 +13°C° 0 mm 2 mps 735 mmHg 77%
10:00 +15°C° 0 mm 2 mps 735 mmHg 71%
11:00 +15°C° 0 mm 2 mps 734 mmHg 68%
12:00 +16°C° 0 mm 2 mps 734 mmHg 64%
13:00 +17°C° 0 mm 2 mps 734 mmHg 61%
14:00 +16°C° 0 mm 2 mps 733 mmHg 66%
15:00 +15°C° 0 mm 2 mps 733 mmHg 70%
16:00 +14°C° 0 mm 2 mps 732 mmHg 75%
17:00 +13°C° 0 mm 2 mps 732 mmHg 80%
18:00 +12°C° 0 mm 2 mps 732 mmHg 84%
19:00 +10°C° 0 mm 2 mps 732 mmHg 88%
20:00 +10°C° 0 mm 2 mps 732 mmHg 89%
21:00 +10°C° 0 mm 2 mps 732 mmHg 89%
22:00 +10°C° 0 mm 2 mps 732 mmHg 90%
23:00 +9°C° 0 mm 2 mps 731 mmHg 90%

25 October, Sunday

Time Temperature Precipitation Wind Pressure Humidity
00:00 +11°C° 0 mm 1 mps 735 mmHg 87%
01:00 +10°C° 0 mm 1 mps 735 mmHg 87%
02:00 +10°C° 0 mm 1 mps 735 mmHg 87%
03:00 +10°C° 0 mm 1 mps 735 mmHg 87%
04:00 +10°C° 0 mm 1 mps 735 mmHg 87%
05:00 +10°C° 0 mm 1 mps 735 mmHg 87%
06:00 +10°C° 0 mm 1 mps 735 mmHg 88%
07:00 +9°C° 0 mm 1 mps 735 mmHg 88%
08:00 +10°C° 0 mm 2 mps 735 mmHg 82%
09:00 +13°C° 0 mm 2 mps 735 mmHg 77%
10:00 +15°C° 0 mm 2 mps 735 mmHg 71%
11:00 +15°C° 0 mm 2 mps 734 mmHg 68%
12:00 +16°C° 0 mm 2 mps 734 mmHg 64%
13:00 +17°C° 0 mm 2 mps 734 mmHg 61%
14:00 +16°C° 0 mm 2 mps 733 mmHg 66%
15:00 +15°C° 0 mm 2 mps 733 mmHg 70%
16:00 +14°C° 0 mm 2 mps 732 mmHg 75%
17:00 +13°C° 0 mm 2 mps 732 mmHg 80%
18:00 +12°C° 0 mm 2 mps 732 mmHg 84%
19:00 +10°C° 0 mm 2 mps 732 mmHg 88%
20:00 +10°C° 0 mm 2 mps 732 mmHg 89%
21:00 +10°C° 0 mm 2 mps 732 mmHg 89%
22:00 +10°C° 0 mm 2 mps 732 mmHg 90%
23:00 +9°C° 0 mm 2 mps 731 mmHg 90%

26 October, Monday

Time Temperature Precipitation Wind Pressure Humidity
00:00 +9°C° 0 mm 2 mps 731 mmHg 89%
01:00 +9°C° 0 mm 2 mps 731 mmHg 89%
02:00 +9°C° 0 mm 2 mps 730 mmHg 89%
03:00 +9°C° 0 mm 2 mps 730 mmHg 90%
04:00 +8°C° 0 mm 2 mps 729 mmHg 90%
05:00 +9°C° 0 mm 2 mps 729 mmHg 90%
06:00 +9°C° 0 mm 2 mps 729 mmHg 90%
07:00 +9°C° 0 mm 2 mps 729 mmHg 90%
08:00 +10°C° 0 mm 3 mps 728 mmHg 85%
09:00 +12°C° 0 mm 4 mps 728 mmHg 81%
10:00 +13°C° 0 mm 4 mps 728 mmHg 76%
11:00 +13°C° 0 mm 4 mps 727 mmHg 76%
12:00 +14°C° 0 mm 4 mps 727 mmHg 76%
13:00 +14°C° 0 mm 4 mps 727 mmHg 76%
14:00 +13°C° 0 mm 4 mps 726 mmHg 77%
15:00 +13°C° 0 mm 3 mps 726 mmHg 79%
16:00 +13°C° 0 mm 3 mps 726 mmHg 81%
17:00 +12°C° 0.1 mm 3 mps 726 mmHg 82%
18:00 +12°C° 0.1 mm 3 mps 726 mmHg 84%
19:00 +12°C° 0.1 mm 3 mps 726 mmHg 85%
20:00 +12°C° 0.2 mm 4 mps 726 mmHg 86%
21:00 +12°C° 0.2 mm 4 mps 726 mmHg 87%
22:00 +12°C° 0.2 mm 4 mps 726 mmHg 88%
23:00 +12°C° 0.1 mm 4 mps 726 mmHg 89%

27 October, Tuesday

Time Temperature Precipitation Wind Pressure Humidity
00:00 +11°C° 0.1 mm 3 mps 726 mmHg 90%
01:00 +11°C° 0.1 mm 3 mps 726 mmHg 90%
02:00 +11°C° 0 mm 3 mps 726 mmHg 90%
03:00 +11°C° 0 mm 3 mps 726 mmHg 90%
04:00 +10°C° 0 mm 3 mps 727 mmHg 90%
05:00 +10°C° 0 mm 2 mps 727 mmHg 91%
06:00 +10°C° 0 mm 2 mps 727 mmHg 91%
07:00 +10°C° 0 mm 2 mps 728 mmHg 92%
08:00 +12°C° 0 mm 2 mps 728 mmHg 87%
09:00 +12°C° 0 mm 3 mps 728 mmHg 83%
10:00 +14°C° 0 mm 3 mps 729 mmHg 79%
11:00 +16°C° 0 mm 3 mps 729 mmHg 75%
12:00 +16°C° 0 mm 3 mps 729 mmHg 71%
13:00 +17°C° 0 mm 2 mps 729 mmHg 67%
14:00 +17°C° 0 mm 2 mps 729 mmHg 71%
15:00 +16°C° 0 mm 2 mps 729 mmHg 75%
16:00 +15°C° 0 mm 1 mps 729 mmHg 79%
17:00 +14°C° 0 mm 1 mps 729 mmHg 82%
18:00 +13°C° 0 mm 2 mps 729 mmHg 85%
19:00 +13°C° 0 mm 2 mps 730 mmHg 88%
20:00 +12°C° 0 mm 1 mps 730 mmHg 88%
21:00 +12°C° 0 mm 1 mps 730 mmHg 88%
22:00 +12°C° 0 mm 1 mps 731 mmHg 88%
23:00 +12°C° 0 mm 1 mps 731 mmHg 88%
Show more